| time (UTC) | temp F | wind direction | speed knots | gust knots | rain 1hr in | rain 24hr in | rain mn in | humidity % | barometer mb |
| 20260507051540 | 52 | 207 | 2.6 | 4.3 | 0.00 | 0.00 | 0.00 | 82 | 1022.1 |
| 20260507051030 | 52 | 226 | 1.7 | 7.0 | 0.00 | 0.00 | 0.00 | 82 | 1022.2 |
| 20260507050526 | 52 | 194 | 3.5 | 7.0 | 0.00 | 0.00 | 0.00 | 82 | 1022.2 |
| 20260507050045 | 52 | 203 | 2.6 | 6.1 | 0.00 | 0.00 | 0.00 | 82 | 1022.1 |
| 20260507045526 | 52 | 193 | 3.5 | 6.1 | 0.00 | 0.00 | 0.00 | 83 | 1022.3 |
| 20260507045026 | 52 | 159 | 2.6 | 5.2 | 0.00 | 0.00 | 0.00 | 84 | 1022.2 |
| 20260507044542 | 53 | 234 | 2.6 | 5.2 | 0.00 | 0.00 | 0.00 | 84 | 1022.2 |
| 20260507044025 | 53 | 195 | 1.7 | 4.3 | 0.00 | 0.00 | 0.00 | 84 | 1022.3 |
| 20260507043526 | 53 | 203 | 1.7 | 6.1 | 0.00 | 0.00 | 0.00 | 84 | 1022.2 |
| 20260507043044 | 53 | 213 | 3.5 | 6.1 | 0.00 | 0.00 | 0.00 | 84 | 1022.2 |
| 20260507042526 | 53 | 196 | 2.6 | 5.2 | 0.00 | 0.00 | 0.00 | 84 | 1022.1 |
| 20260507042026 | 53 | 242 | 1.7 | 5.2 | 0.00 | 0.00 | 0.00 | 84 | 1022.1 |
| 20260507041545 | 53 | 227 | 2.6 | 5.2 | 0.00 | 0.00 | 0.00 | 83 | 1022.1 |
| 20260507041026 | 53 | 202 | 2.6 | 6.1 | 0.00 | 0.00 | 0.00 | 83 | 1022.1 |
| 20260507040527 | 54 | 148 | 2.6 | 6.1 | 0.00 | 0.00 | 0.00 | 82 | 1022.0 |
| 20260507040042 | 54 | 247 | 2.6 | 5.2 | 0.00 | 0.00 | 0.00 | 83 | 1021.9 |
| 20260507035526 | 54 | 216 | 0.9 | 2.6 | 0.00 | 0.00 | 0.00 | 83 | 1021.9 |
| 20260507035026 | 54 | 226 | 0.9 | 7.8 | 0.00 | 0.00 | 0.00 | 84 | 1021.9 |
| 20260507034603 | 54 | 240 | 1.7 | 7.8 | 0.00 | 0.00 | 0.00 | 83 | 1021.9 |
| 20260507034027 | 54 | 200 | 1.7 | 7.8 | 0.00 | 0.00 | 0.00 | 84 | 1021.9 |
| 20260507033526 | 54 | 271 | 2.6 | 7.8 | 0.00 | 0.00 | 0.00 | 84 | 1021.8 |
| 20260507033100 | 54 | 229 | 2.6 | 7.8 | 0.00 | 0.00 | 0.00 | 84 | 1021.8 |
| 20260507032526 | 54 | 236 | 2.6 | 5.2 | 0.00 | 0.00 | 0.00 | 85 | 1021.8 |
| 20260507032025 | 54 | 208 | 0.9 | 5.2 | 0.00 | 0.00 | 0.00 | 85 | 1021.6 |
| 20260507031542 | 54 | 209 | 2.6 | 5.2 | 0.00 | 0.00 | 0.00 | 85 | 1021.6 |
| 20260507031026 | 54 | 219 | 1.7 | 4.3 | 0.00 | 0.00 | 0.00 | 85 | 1021.6 |
| 20260507030526 | 54 | 198 | 1.7 | 7.8 | 0.00 | 0.00 | 0.00 | 85 | 1021.5 |
| 20260507030041 | 55 | 173 | 2.6 | 7.8 | 0.00 | 0.00 | 0.00 | 84 | 1021.5 |
| 20260507025525 | 55 | 252 | 4.3 | 7.8 | 0.00 | 0.00 | 0.00 | 84 | 1021.4 |
| 20260507025026 | 55 | 182 | 2.6 | 6.1 | 0.00 | 0.00 | 0.00 | 84 | 1021.3 |
| 20260507024551 | 55 | 209 | 3.5 | 6.1 | 0.00 | 0.00 | 0.00 | 85 | 1021.4 |
| 20260507024026 | 55 | 191 | 2.6 | 5.2 | 0.00 | 0.00 | 0.00 | 85 | 1021.4 |
| 20260507023526 | 55 | 175 | 2.6 | 8.7 | 0.00 | 0.00 | 0.00 | 84 | 1021.3 |
| 20260507023040 | 55 | 234 | 0.9 | 8.7 | 0.00 | 0.00 | 0.00 | 84 | 1021.3 |
| 20260507022526 | 55 | 254 | 3.5 | 8.7 | 0.00 | 0.00 | 0.00 | 85 | 1021.3 |
| 20260507022028 | 55 | 195 | 2.6 | 5.2 | 0.00 | 0.00 | 0.00 | 85 | 1021.2 |
| 20260507021547 | 55 | 224 | 1.7 | 6.1 | 0.00 | 0.00 | 0.00 | 85 | 1021.4 |
| 20260507021026 | 55 | 215 | 3.5 | 7.8 | 0.00 | 0.00 | 0.00 | 84 | 1021.5 |
| 20260507020526 | 55 | 217 | 2.6 | 7.8 | 0.00 | 0.00 | 0.00 | 84 | 1021.4 |
| 20260507020042 | 55 | 213 | 3.5 | 7.8 | 0.00 | 0.00 | 0.00 | 84 | 1021.4 |
| 20260507015526 | 55 | 196 | 4.3 | 7.8 | 0.00 | 0.00 | 0.00 | 84 | 1021.4 |
| 20260507015026 | 55 | 196 | 4.3 | 7.8 | 0.00 | 0.00 | 0.00 | 84 | 1021.5 |
| 20260507014540 | 55 | 202 | 4.3 | 9.6 | 0.00 | 0.00 | 0.00 | 83 | 1021.4 |
| 20260507014026 | 55 | 202 | 5.2 | 9.6 | 0.00 | 0.00 | 0.00 | 83 | 1021.5 |
| 20260507013525 | 56 | 224 | 3.5 | 7.8 | 0.00 | 0.00 | 0.00 | 83 | 1021.5 |
| 20260507013041 | 56 | 163 | 2.6 | 10.4 | 0.00 | 0.00 | 0.00 | 82 | 1021.5 |
| 20260507012525 | 56 | 202 | 3.5 | 12.2 | 0.00 | 0.00 | 0.00 | 82 | 1021.4 |
| 20260507012026 | 56 | 204 | 5.2 | 13.0 | 0.00 | 0.00 | 0.00 | 81 | 1021.4 |
| 20260507011541 | 56 | 248 | 4.3 | 13.0 | 0.00 | 0.00 | 0.00 | 81 | 1021.4 |
| 20260507011025 | 56 | 221 | 5.2 | 10.4 | 0.00 | 0.00 | 0.00 | 81 | 1021.4 |
| 20260507010530 | 57 | 236 | 4.3 | 9.6 | 0.00 | 0.00 | 0.00 | 81 | 1021.5 |
| 20260507010041 | 57 | 200 | 2.6 | 10.4 | 0.00 | 0.00 | 0.00 | 81 | 1021.4 |
| 20260507005527 | 57 | 250 | 4.3 | 10.4 | 0.00 | 0.00 | 0.00 | 81 | 1021.3 |
| 20260507005026 | 57 | 240 | 3.5 | 7.8 | 0.00 | 0.00 | 0.00 | 81 | 1021.3 |
| 20260507004539 | 57 | 242 | 3.5 | 8.7 | 0.00 | 0.00 | 0.00 | 81 | 1021.3 |
| 20260507004026 | 57 | 214 | 2.6 | 8.7 | 0.00 | 0.00 | 0.00 | 81 | 1021.3 |
| 20260507003529 | 57 | 254 | 4.3 | 7.8 | 0.00 | 0.00 | 0.00 | 81 | 1021.3 |
| 20260507003043 | 57 | 215 | 2.6 | 10.4 | 0.00 | 0.00 | 0.00 | 81 | 1021.3 |
| 20260507002528 | 57 | 243 | 5.2 | 10.4 | 0.00 | 0.00 | 0.00 | 80 | 1021.4 |
| 20260507002026 | 57 | 211 | 2.6 | 7.8 | 0.00 | 0.00 | 0.00 | 80 | 1021.4 |
| 20260507001604 | 57 | 228 | 2.6 | 8.7 | 0.00 | 0.00 | 0.00 | 80 | 1021.3 |
| 20260507001025 | 57 | 198 | 3.5 | 8.7 | 0.00 | 0.00 | 0.00 | 80 | 1021.4 |
| 20260507000526 | 57 | 246 | 3.5 | 8.7 | 0.00 | 0.00 | 0.00 | 80 | 1021.5 |
| 20260507000042 | 58 | 192 | 5.2 | 7.8 | 0.00 | 0.00 | 0.00 | 80 | 1021.5 |
| 20260506235526 | 58 | 237 | 2.6 | 9.6 | 0.00 | 0.00 | 0.00 | 80 | 1021.6 |
| 20260506235028 | 58 | 242 | 3.5 | 10.4 | 0.00 | 0.00 | 0.00 | 80 | 1021.5 |
| 20260506234549 | 57 | 231 | 5.2 | 10.4 | 0.00 | 0.00 | 0.00 | 79 | 1021.7 |
| 20260506234026 | 57 | 205 | 2.6 | 7.0 | 0.00 | 0.00 | 0.00 | 79 | 1021.6 |
| 20260506233525 | 57 | 187 | 3.5 | 7.0 | 0.00 | 0.00 | 0.00 | 80 | 1021.7 |
| 20260506233040 | 57 | 260 | 3.5 | 9.6 | 0.00 | 0.00 | 0.00 | 81 | 1021.6 |
| 20260506232525 | 57 | 215 | 4.3 | 10.4 | 0.00 | 0.00 | 0.00 | 80 | 1021.7 |
| 20260506232027 | 57 | 211 | 4.3 | 10.4 | 0.00 | 0.00 | 0.00 | 81 | 1021.6 |
| 20260506231538 | 57 | 221 | 4.3 | 9.6 | 0.00 | 0.00 | 0.00 | 80 | 1021.5 |
| 20260506231026 | 57 | 265 | 3.5 | 9.6 | 0.00 | 0.00 | 0.00 | 81 | 1021.6 |
| 20260506230525 | 57 | 181 | 3.5 | 9.6 | 0.00 | 0.00 | 0.00 | 81 | 1021.6 |
| 20260506230045 | 57 | 151 | 6.1 | 13.9 | 0.00 | 0.00 | 0.00 | 80 | 1021.6 |
| 20260506225526 | 57 | 235 | 4.3 | 13.9 | 0.00 | 0.00 | 0.00 | 80 | 1021.6 |
| 20260506225026 | 57 | 202 | 7.8 | 13.9 | 0.00 | 0.00 | 0.00 | 79 | 1021.6 |
| 20260506224600 | 57 | 205 | 6.1 | 13.9 | 0.00 | 0.00 | 0.00 | 80 | 1021.5 |
| 20260506224025 | 57 | 194 | 5.2 | 13.0 | 0.00 | 0.00 | 0.00 | 81 | 1021.6 |
| 20260506223525 | 57 | 257 | 5.2 | 11.3 | 0.00 | 0.00 | 0.00 | 81 | 1021.6 |
| 20260506223040 | 57 | 161 | 7.0 | 13.0 | 0.00 | 0.00 | 0.00 | 81 | 1021.7 |
| 20260506222527 | 57 | 215 | 6.1 | 13.0 | 0.00 | 0.00 | 0.00 | 80 | 1021.8 |
| 20260506222026 | 57 | 221 | 5.2 | 13.0 | 0.00 | 0.00 | 0.00 | 81 | 1021.9 |
| 20260506221541 | 57 | 228 | 6.1 | 17.4 | 0.00 | 0.00 | 0.00 | 80 | 1021.8 |
| 20260506221026 | 57 | 215 | 5.2 | 17.4 | 0.00 | 0.00 | 0.00 | 80 | 1021.8 |
| 20260506220525 | 57 | 193 | 6.1 | 12.2 | 0.00 | 0.00 | 0.00 | 80 | 1021.9 |
| 20260506220045 | 57 | 220 | 5.2 | 12.2 | 0.00 | 0.00 | 0.00 | 80 | 1021.9 |
| 20260506215526 | 57 | 189 | 4.3 | 10.4 | 0.00 | 0.00 | 0.00 | 81 | 1021.8 |
| 20260506215025 | 57 | 236 | 7.0 | 9.6 | 0.00 | 0.00 | 0.00 | 80 | 1021.8 |
| 20260506214617 | 57 | 220 | 3.5 | 10.4 | 0.00 | 0.00 | 0.00 | 80 | 1021.7 |
| 20260506214028 | 57 | 250 | 6.1 | 10.4 | 0.00 | 0.00 | 0.00 | 79 | 1021.8 |
| 20260506213525 | 57 | 225 | 2.6 | 10.4 | 0.00 | 0.00 | 0.00 | 80 | 1021.9 |
| 20260506213042 | 57 | 159 | 5.2 | 10.4 | 0.00 | 0.00 | 0.00 | 80 | 1021.9 |
| 20260506212527 | 57 | 271 | 5.2 | 10.4 | 0.00 | 0.00 | 0.00 | 80 | 1021.9 |
| 20260506212026 | 56 | 254 | 3.5 | 15.6 | 0.00 | 0.00 | 0.00 | 81 | 1021.9 |
| 20260506211550 | 56 | 194 | 4.3 | 15.6 | 0.00 | 0.00 | 0.00 | 82 | 1022.0 |
| 20260506211026 | 56 | 190 | 6.1 | 10.4 | 0.00 | 0.00 | 0.00 | 82 | 1021.9 |
| 20260506210525 | 56 | 127 | 5.2 | 11.3 | 0.00 | 0.00 | 0.00 | 81 | 1022.0 |
| 20260506210042 | 56 | 254 | 5.2 | 11.3 | 0.00 | 0.00 | 0.00 | 80 | 1022.0 |
| 20260506205525 | 57 | 232 | 3.5 | 9.6 | 0.00 | 0.00 | 0.00 | 81 | 1021.9 |
| 20260506205025 | 56 | 246 | 5.2 | 9.6 | 0.00 | 0.00 | 0.00 | 80 | 1021.9 |
| 20260506204540 | 57 | 209 | 5.2 | 9.6 | 0.00 | 0.00 | 0.00 | 81 | 1022.0 |
| 20260506204026 | 57 | 197 | 4.3 | 7.8 | 0.00 | 0.00 | 0.00 | 80 | 1022.0 |
| 20260506203525 | 57 | 227 | 2.6 | 7.8 | 0.00 | 0.00 | 0.00 | 81 | 1021.8 |
| 20260506203040 | 57 | 267 | 3.5 | 12.2 | 0.00 | 0.00 | 0.00 | 81 | 1021.7 |
| 20260506202525 | 57 | 219 | 5.2 | 12.2 | 0.00 | 0.00 | 0.00 | 80 | 1021.7 |
| 20260506202025 | 56 | 222 | 4.3 | 11.3 | 0.00 | 0.00 | 0.00 | 80 | 1021.8 |
| 20260506201540 | 57 | 283 | 5.2 | 9.6 | 0.00 | 0.00 | 0.00 | 79 | 1021.8 |
| 20260506201028 | 57 | 255 | 4.3 | 8.7 | 0.00 | 0.00 | 0.00 | 80 | 1021.7 |
| 20260506200528 | 57 | 189 | 5.2 | 8.7 | 0.00 | 0.00 | 0.00 | 79 | 1021.6 |
| 20260506200038 | 57 | 267 | 4.3 | 7.8 | 0.00 | 0.00 | 0.00 | 80 | 1021.7 |
| 20260506195530 | 57 | 228 | 2.6 | 9.6 | 0.00 | 0.00 | 0.00 | 81 | 1021.6 |
| 20260506195025 | 56 | 249 | 3.5 | 9.6 | 0.00 | 0.00 | 0.00 | 81 | 1021.5 |
| 20260506194546 | 56 | 193 | 2.6 | 13.0 | 0.00 | 0.00 | 0.00 | 81 | 1021.5 |
| 20260506194028 | 56 | 247 | 6.1 | 13.0 | 0.00 | 0.00 | 0.00 | 80 | 1021.5 |
| 20260506193525 | 56 | 216 | 4.3 | 10.4 | 0.00 | 0.00 | 0.00 | 81 | 1021.5 |
| 20260506193048 | 56 | 201 | 5.2 | 10.4 | 0.00 | 0.00 | 0.00 | 81 | 1021.5 |
| 20260506192526 | 56 | 211 | 5.2 | 12.2 | 0.00 | 0.00 | 0.00 | 80 | 1021.5 |
| 20260506192026 | 55 | 220 | 5.2 | 12.2 | 0.00 | 0.00 | 0.00 | 81 | 1021.5 |
| 20260506191542 | 55 | 241 | 5.2 | 12.2 | 0.00 | 0.00 | 0.00 | 81 | 1021.4 |
| 20260506191026 | 55 | 246 | 5.2 | 12.2 | 0.00 | 0.00 | 0.00 | 81 | 1021.4 |
| 20260506190526 | 55 | 222 | 5.2 | 12.2 | 0.00 | 0.00 | 0.00 | 81 | 1021.4 |
| 20260506190041 | 55 | 225 | 5.2 | 10.4 | 0.00 | 0.00 | 0.00 | 82 | 1021.5 |
| 20260506185525 | 55 | 233 | 5.2 | 10.4 | 0.00 | 0.00 | 0.00 | 82 | 1021.6 |
| 20260506185030 | 55 | 183 | 3.5 | 7.0 | 0.00 | 0.00 | 0.00 | 83 | 1021.5 |
| 20260506184546 | 55 | 254 | 2.6 | 8.7 | 0.00 | 0.00 | 0.00 | 83 | 1021.5 |
| 20260506184033 | 55 | 247 | 4.3 | 9.6 | 0.00 | 0.00 | 0.00 | 83 | 1021.4 |
| 20260506183529 | 55 | 225 | 4.3 | 9.6 | 0.00 | 0.00 | 0.00 | 82 | 1021.4 |
| 20260506183043 | 55 | 238 | 4.3 | 10.4 | 0.00 | 0.00 | 0.00 | 82 | 1021.4 |
| 20260506182526 | 55 | 190 | 4.3 | 10.4 | 0.00 | 0.00 | 0.00 | 81 | 1021.5 |
| 20260506182026 | 55 | 238 | 5.2 | 11.3 | 0.00 | 0.00 | 0.00 | 82 | 1021.4 |
| 20260506181557 | 55 | 232 | 4.3 | 11.3 | 0.00 | 0.00 | 0.00 | 81 | 1021.3 |
| 20260506181026 | 56 | 225 | 5.2 | 8.7 | 0.00 | 0.00 | 0.00 | 81 | 1021.3 |
| 20260506180526 | 56 | 199 | 4.3 | 12.2 | 0.00 | 0.00 | 0.00 | 81 | 1021.1 |
| 20260506180043 | 56 | 222 | 6.1 | 12.2 | 0.00 | 0.00 | 0.00 | 80 | 1021.1 |
| 20260506175527 | 56 | 216 | 4.3 | 9.6 | 0.00 | 0.00 | 0.00 | 81 | 1021.0 |
| 20260506175025 | 56 | 246 | 4.3 | 10.4 | 0.00 | 0.00 | 0.00 | 81 | 1021.4 |
| 20260506174538 | 56 | 257 | 2.6 | 11.3 | 0.00 | 0.00 | 0.00 | 81 | 1021.2 |
| 20260506174025 | 56 | 254 | 5.2 | 11.3 | 0.00 | 0.00 | 0.00 | 81 | 1021.1 |
| 20260506173525 | 56 | 228 | 5.2 | 11.3 | 0.00 | 0.00 | 0.00 | 79 | 1021.0 |
| 20260506173054 | 56 | 198 | 6.1 | 12.2 | 0.00 | 0.00 | 0.00 | 79 | 1020.9 |
| 20260506172526 | 56 | 229 | 5.2 | 12.2 | 0.00 | 0.00 | 0.00 | 81 | 1021.0 |
| 20260506172025 | 56 | 254 | 4.3 | 11.3 | 0.00 | 0.00 | 0.00 | 80 | 1021.0 |
| 20260506171546 | 56 | 252 | 6.1 | 11.3 | 0.00 | 0.00 | 0.00 | 80 | 1021.0 |
| 20260506171025 | 56 | 238 | 3.5 | 10.4 | 0.00 | 0.00 | 0.00 | 81 | 1021.0 |
| 20260506170525 | 55 | 249 | 4.3 | 10.4 | 0.00 | 0.00 | 0.00 | 81 | 1021.1 |
| 20260506170050 | 55 | 224 | 2.6 | 6.1 | 0.00 | 0.00 | 0.00 | 81 | 1021.1 |
| 20260506165525 | 55 | 273 | 2.6 | 7.8 | 0.00 | 0.00 | 0.00 | 82 | 1021.0 |
| 20260506165025 | 55 | 257 | 4.3 | 7.8 | 0.00 | 0.00 | 0.00 | 81 | 1021.0 |
| 20260506164542 | 55 | 260 | 3.5 | 8.7 | 0.00 | 0.00 | 0.00 | 82 | 1021.0 |
| 20260506164028 | 55 | 215 | 2.6 | 8.7 | 0.00 | 0.00 | 0.00 | 81 | 1020.9 |
| 20260506163526 | 55 | 235 | 2.6 | 7.0 | 0.00 | 0.00 | 0.00 | 82 | 1021.0 |
| 20260506163043 | 55 | 237 | 2.6 | 7.0 | 0.00 | 0.00 | 0.00 | 83 | 1021.0 |
| 20260506162525 | 55 | 242 | 2.6 | 7.0 | 0.00 | 0.00 | 0.00 | 83 | 1020.8 |
| 20260506162025 | 55 | 202 | 4.3 | 7.0 | 0.00 | 0.00 | 0.00 | 83 | 1020.8 |
| 20260506161542 | 55 | 209 | 1.7 | 7.0 | 0.00 | 0.00 | 0.00 | 84 | 1020.7 |
| 20260506161025 | 55 | 217 | 2.6 | 7.0 | 0.00 | 0.00 | 0.00 | 85 | 1020.6 |
| 20260506160527 | 55 | 223 | 2.6 | 5.2 | 0.00 | 0.00 | 0.00 | 85 | 1020.6 |
| 20260506160052 | 55 | 248 | 1.7 | 5.2 | 0.00 | 0.00 | 0.00 | 85 | 1020.5 |
| 20260506155525 | 54 | 208 | 2.6 | 5.2 | 0.00 | 0.00 | 0.00 | 84 | 1020.5 |
| 20260506155025 | 54 | 277 | 1.7 | 7.0 | 0.00 | 0.00 | 0.00 | 86 | 1020.7 |
| 20260506154548 | 54 | 279 | 2.6 | 7.0 | 0.00 | 0.00 | 0.00 | 85 | 1020.4 |
| 20260506154025 | 54 | 196 | 2.6 | 7.0 | 0.00 | 0.00 | 0.00 | 86 | 1020.5 |
| 20260506153525 | 54 | 249 | 2.6 | 7.0 | 0.00 | 0.00 | 0.00 | 86 | 1020.4 |
| 20260506153042 | 54 | 210 | 1.7 | 6.1 | 0.00 | 0.00 | 0.00 | 86 | 1020.4 |
| 20260506152525 | 54 | 253 | 2.6 | 4.3 | 0.00 | 0.00 | 0.00 | 87 | 1020.5 |
| 20260506152028 | 53 | 257 | 0.9 | 3.5 | 0.00 | 0.00 | 0.00 | 88 | 1020.5 |
| 20260506151545 | 53 | 265 | 1.7 | 4.3 | 0.00 | 0.00 | 0.00 | 88 | 1020.5 |
| 20260506151026 | 53 | 232 | 1.7 | 4.3 | 0.00 | 0.00 | 0.00 | 88 | 1020.6 |
| 20260506150527 | 53 | 207 | 2.6 | 5.2 | 0.00 | 0.00 | 0.00 | 89 | 1020.7 |
| 20260506150040 | 53 | 172 | 2.6 | 5.2 | 0.00 | 0.00 | 0.00 | 89 | 1020.6 |
| 20260506145526 | 53 | 162 | 1.7 | 4.3 | 0.00 | 0.00 | 0.00 | 90 | 1020.7 |
| 20260506145025 | 53 | 170 | 1.7 | 5.2 | 0.00 | 0.00 | 0.00 | 90 | 1020.5 |
| 20260506144544 | 52 | 209 | 3.5 | 5.2 | 0.00 | 0.00 | 0.00 | 90 | 1020.4 |
| 20260506144025 | 52 | 165 | 2.6 | 5.2 | 0.00 | 0.00 | 0.00 | 90 | 1020.5 |
| 20260506143525 | 52 | 190 | 3.5 | 5.2 | 0.00 | 0.00 | 0.00 | 90 | 1020.4 |
| 20260506143039 | 52 | 197 | 1.7 | 4.3 | 0.00 | 0.00 | 0.00 | 90 | 1020.4 |
| 20260506142526 | 52 | 209 | 2.6 | 4.3 | 0.00 | 0.00 | 0.00 | 90 | 1020.5 |
| 20260506142025 | 52 | 220 | 0.9 | 5.2 | 0.00 | 0.00 | 0.00 | 90 | 1020.3 |
| 20260506141541 | 52 | 161 | 3.5 | 5.2 | 0.00 | 0.00 | 0.00 | 90 | 1020.0 |
| 20260506141027 | 52 | 198 | 2.6 | 4.3 | 0.00 | 0.00 | 0.00 | 90 | 1020.2 |
| 20260506140525 | 52 | 202 | 0.9 | 4.3 | 0.00 | 0.00 | 0.00 | 90 | 1020.2 |
| 20260506140042 | 52 | 193 | 1.7 | 7.0 | 0.00 | 0.00 | 0.00 | 90 | 1020.2 |
| 20260506135524 | 52 | 194 | 1.7 | 7.0 | 0.00 | 0.00 | 0.00 | 90 | 1020.3 |
| 20260506135024 | 52 | 219 | 0.9 | 3.5 | 0.00 | 0.00 | 0.00 | 90 | 1020.1 |
| 20260506134541 | 52 | 269 | 0.9 | 5.2 | 0.00 | 0.00 | 0.00 | 90 | 1020.1 |
| 20260506134025 | 52 | 229 | 2.6 | 5.2 | 0.00 | 0.00 | 0.00 | 90 | 1020.3 |
| 20260506133529 | 52 | 211 | 0.0 | 6.1 | 0.00 | 0.00 | 0.00 | 90 | 1020.2 |
| 20260506133039 | 52 | 224 | 2.6 | 6.1 | 0.00 | 0.00 | 0.00 | 90 | 1020.2 |
| 20260506132525 | 52 | 165 | 2.6 | 5.2 | 0.00 | 0.00 | 0.00 | 90 | 1020.3 |
| 20260506132027 | 52 | 229 | 1.7 | 5.2 | 0.00 | 0.00 | 0.00 | 90 | 1020.2 |
| 20260506131555 | 52 | 249 | 2.6 | 6.1 | 0.00 | 0.00 | 0.00 | 90 | 1020.2 |
| 20260506131025 | 52 | 244 | 1.7 | 6.1 | 0.00 | 0.00 | 0.00 | 90 | 1020.1 |
| 20260506130527 | 52 | 274 | 1.7 | 4.3 | 0.00 | 0.00 | 0.00 | 90 | 1020.1 |
| 20260506130046 | 52 | 237 | 1.7 | 3.5 | 0.00 | 0.00 | 0.00 | 90 | 1020.1 |
| 20260506125525 | 52 | 285 | 0.9 | 4.3 | 0.00 | 0.00 | 0.00 | 90 | 1019.7 |
| 20260506125025 | 52 | 219 | 1.7 | 4.3 | 0.00 | 0.00 | 0.00 | 90 | 1019.8 |
| 20260506124544 | 52 | 243 | 2.6 | 6.1 | 0.00 | 0.00 | 0.00 | 90 | 1019.7 |
| 20260506124025 | 52 | 236 | 1.7 | 6.1 | 0.00 | 0.00 | 0.00 | 90 | 1019.7 |
| 20260506123529 | 52 | 208 | 2.6 | 7.0 | 0.00 | 0.00 | 0.00 | 90 | 1019.7 |
| 20260506123043 | 52 | 244 | 1.7 | 7.0 | 0.00 | 0.00 | 0.00 | 90 | 1019.7 |
| 20260506122525 | 52 | 287 | 2.6 | 6.1 | 0.00 | 0.00 | 0.00 | 90 | 1019.7 |
| 20260506122025 | 52 | 230 | 1.7 | 7.0 | 0.00 | 0.00 | 0.00 | 90 | 1019.6 |
| 20260506121542 | 52 | 296 | 2.6 | 7.8 | 0.00 | 0.00 | 0.00 | 90 | 1019.7 |
| 20260506121025 | 52 | 233 | 2.6 | 11.3 | 0.00 | 0.00 | 0.00 | 90 | 1019.5 |
| 20260506120527 | 52 | 257 | 5.2 | 11.3 | 0.00 | 0.00 | 0.00 | 90 | 1019.5 |
| 20260506120041 | 52 | 248 | 2.6 | 8.7 | 0.00 | 0.00 | 0.00 | 90 | 1019.5 |
| 20260506115525 | 52 | 275 | 3.5 | 7.8 | 0.00 | 0.00 | 0.00 | 90 | 1019.6 |
| 20260506115025 | 52 | 263 | 3.5 | 7.8 | 0.00 | 0.00 | 0.00 | 90 | 1019.5 |
| 20260506114542 | 52 | 246 | 4.3 | 8.7 | 0.00 | 0.00 | 0.00 | 89 | 1019.5 |
| 20260506114029 | 52 | 310 | 3.5 | 8.7 | 0.00 | 0.00 | 0.00 | 89 | 1019.4 |
| 20260506113525 | 52 | 254 | 2.6 | 9.6 | 0.00 | 0.00 | 0.00 | 89 | 1019.3 |
| 20260506113042 | 52 | 257 | 4.3 | 9.6 | 0.00 | 0.00 | 0.00 | 89 | 1019.3 |
| 20260506112524 | 52 | 241 | 3.5 | 9.6 | 0.00 | 0.00 | 0.00 | 89 | 1019.3 |
| 20260506112024 | 52 | 202 | 2.6 | 6.1 | 0.00 | 0.00 | 0.00 | 90 | 1019.3 |
| 20260506111540 | 52 | 274 | 2.6 | 7.0 | 0.00 | 0.00 | 0.00 | 90 | 1019.2 |
| 20260506111028 | 52 | 259 | 1.7 | 7.0 | 0.00 | 0.00 | 0.00 | 90 | 1019.2 |
| 20260506110530 | 52 | 277 | 2.6 | 6.1 | 0.00 | 0.00 | 0.00 | 90 | 1019.3 |
| 20260506110040 | 53 | 246 | 2.6 | 7.0 | 0.00 | 0.00 | 0.00 | 90 | 1019.3 |
| 20260506105526 | 53 | 240 | 2.6 | 7.0 | 0.00 | 0.00 | 0.00 | 90 | 1019.2 |
| 20260506105030 | 53 | 271 | 0.9 | 7.0 | 0.00 | 0.00 | 0.00 | 90 | 1019.2 |
| 20260506104547 | 53 | 253 | 4.3 | 7.0 | 0.00 | 0.00 | 0.00 | 89 | 1019.2 |
| 20260506104025 | 53 | 232 | 2.6 | 7.8 | 0.00 | 0.00 | 0.00 | 89 | 1019.1 |
| 20260506103525 | 53 | 284 | 3.5 | 9.6 | 0.00 | 0.00 | 0.00 | 89 | 1019.1 |
| 20260506103042 | 53 | 244 | 3.5 | 9.6 | 0.00 | 0.00 | 0.00 | 89 | 1019.1 |
| 20260506102525 | 53 | 257 | 3.5 | 9.6 | 0.00 | 0.00 | 0.00 | 89 | 1019.1 |
| 20260506102025 | 53 | 221 | 3.5 | 7.0 | 0.00 | 0.00 | 0.00 | 89 | 1019.0 |
| 20260506101536 | 53 | 269 | 3.5 | 7.0 | 0.00 | 0.00 | 0.00 | 89 | 1018.9 |
| 20260506101025 | 53 | 293 | 2.6 | 8.7 | 0.00 | 0.00 | 0.00 | 89 | 1018.9 |
| 20260506100529 | 53 | 269 | 4.3 | 8.7 | 0.00 | 0.00 | 0.00 | 89 | 1018.9 |
| 20260506100042 | 53 | 274 | 5.2 | 9.6 | 0.00 | 0.00 | 0.00 | 89 | 1018.8 |
| 20260506095527 | 53 | 161 | 2.6 | 9.6 | 0.00 | 0.00 | 0.00 | 89 | 1018.9 |
| 20260506095025 | 53 | 223 | 1.7 | 8.7 | 0.00 | 0.00 | 0.00 | 89 | 1018.9 |
| 20260506094551 | 53 | 255 | 2.6 | 8.7 | 0.00 | 0.00 | 0.00 | 89 | 1018.7 |
| 20260506094028 | 53 | 218 | 3.5 | 7.8 | 0.00 | 0.00 | 0.00 | 89 | 1018.8 |
| 20260506093524 | 53 | 234 | 4.3 | 7.8 | 0.00 | 0.00 | 0.00 | 89 | 1018.7 |
| 20260506093041 | 53 | 224 | 1.7 | 5.2 | 0.00 | 0.00 | 0.00 | 89 | 1018.6 |
| 20260506092525 | 53 | 163 | 1.7 | 6.1 | 0.00 | 0.00 | 0.00 | 89 | 1018.6 |
| 20260506092028 | 53 | 248 | 2.6 | 6.1 | 0.00 | 0.00 | 0.00 | 89 | 1018.6 |
| 20260506091541 | 53 | 227 | 2.6 | 11.3 | 0.00 | 0.00 | 0.00 | 89 | 1018.5 |
| 20260506091026 | 53 | 230 | 2.6 | 11.3 | 0.00 | 0.00 | 0.00 | 89 | 1018.5 |
| 20260506090525 | 53 | 259 | 1.7 | 6.1 | 0.00 | 0.00 | 0.00 | 89 | 1018.6 |
| 20260506090039 | 53 | 252 | 2.6 | 6.1 | 0.00 | 0.00 | 0.00 | 89 | 1018.6 |
| 20260506085527 | 53 | 230 | 3.5 | 9.6 | 0.00 | 0.00 | 0.00 | 88 | 1018.6 |
| 20260506085027 | 53 | 225 | 3.5 | 9.6 | 0.00 | 0.00 | 0.00 | 88 | 1018.6 |
| 20260506084545 | 53 | 242 | 1.7 | 7.0 | 0.00 | 0.00 | 0.00 | 88 | 1018.5 |
| 20260506084028 | 53 | 221 | 2.6 | 7.0 | 0.00 | 0.00 | 0.00 | 88 | 1018.4 |
| 20260506083527 | 53 | 220 | 2.6 | 6.1 | 0.00 | 0.00 | 0.00 | 88 | 1018.3 |
| 20260506083044 | 53 | 184 | 1.7 | 5.2 | 0.00 | 0.00 | 0.00 | 88 | 1018.2 |
| 20260506082530 | 53 | 157 | 1.7 | 6.1 | 0.00 | 0.00 | 0.00 | 88 | 1018.2 |
| 20260506082030 | 53 | 186 | 2.6 | 6.1 | 0.00 | 0.00 | 0.00 | 88 | 1018.2 |
| 20260506081543 | 53 | 198 | 2.6 | 6.1 | 0.00 | 0.00 | 0.00 | 88 | 1018.2 |
| 20260506081027 | 53 | 163 | 1.7 | 6.1 | 0.00 | 0.00 | 0.00 | 88 | 1018.1 |
| 20260506080527 | 53 | 251 | 0.0 | 6.1 | 0.00 | 0.00 | 0.00 | 88 | 1018.0 |
| 20260506073527 | 53 | 218 | 0.9 | 4.3 | 0.00 | 0.00 | 0.00 | 88 | 1017.7 |
| 20260506073041 | 53 | 219 | 0.9 | 2.6 | 0.00 | 0.00 | 0.00 | 88 | 1017.6 |
| 20260506072531 | 53 | 234 | 0.9 | 4.3 | 0.00 | 0.00 | 0.00 | 88 | 1017.6 |
| 20260506072028 | 54 | 206 | 1.7 | 4.3 | 0.00 | 0.00 | 0.00 | 88 | 1017.6 |
| 20260506071547 | 54 | 243 | 1.7 | 4.3 | 0.00 | 0.00 | 0.00 | 88 | 1017.6 |
| 20260506071027 | 53 | 232 | 1.7 | 7.8 | 0.00 | 0.00 | 0.00 | 88 | 1017.6 |
| 20260506070527 | 54 | 209 | 2.6 | 7.8 | 0.00 | 0.00 | 0.00 | 88 | 1017.5 |
| 20260506062027 | 53 | 240 | 1.7 | 7.0 | 0.00 | 0.00 | 0.00 | 89 | 1017.4 |
| 20260506061541 | 53 | 201 | 3.5 | 7.0 | 0.00 | 0.00 | 0.00 | 89 | 1017.3 |
| 20260506061031 | 53 | 242 | 3.5 | 7.0 | 0.00 | 0.00 | 0.00 | 89 | 1017.4 |
| 20260506060529 | 53 | 210 | 2.6 | 6.1 | 0.00 | 0.00 | 0.00 | 89 | 1017.3 |